• In Belarus
  • List of Countries
  • For 7 days
  • Water Temperature
  • Satellite Maps
  • Weather Map
  • Weather Widgets
  • user-avatar
    Login

    Hourly Weather Dansaj

    Today, 22 September, Saturday

    Time Temperature Precipitation Wind Pressure Humidity
    00:00 +21°C° 0 mm 0 mps 705 mmHg 93%
    01:00 +21°C° 0 mm 0 mps 705 mmHg 94%
    02:00 +21°C° 0 mm 0 mps 705 mmHg 94%
    03:00 +21°C° 0 mm 0 mps 705 mmHg 94%
    04:00 +20°C° 0 mm 0 mps 705 mmHg 95%
    05:00 +21°C° 0 mm 0 mps 705 mmHg 93%
    06:00 +21°C° 0 mm 0 mps 705 mmHg 91%
    07:00 +22°C° 0 mm 0 mps 706 mmHg 88%
    08:00 +26°C° 0 mm 1 mps 706 mmHg 79%
    09:00 +29°C° 0 mm 1 mps 707 mmHg 70%
    10:00 +31°C° 0 mm 1 mps 707 mmHg 62%
    11:00 +31°C° 0 mm 1 mps 707 mmHg 59%
    12:00 +32°C° 0 mm 1 mps 706 mmHg 56%
    13:00 +32°C° 0 mm 2 mps 706 mmHg 58%
    14:00 +32°C° 0.1 mm 1 mps 706 mmHg 60%
    15:00 +31°C° 0.1 mm 1 mps 705 mmHg 63%
    16:00 +31°C° 0.1 mm 1 mps 705 mmHg 65%
    17:00 +29°C° 0 mm 1 mps 704 mmHg 73%
    18:00 +27°C° 0 mm 1 mps 704 mmHg 80%
    19:00 +23°C° 0 mm 0 mps 704 mmHg 91%
    20:00 +23°C° 0.2 mm 0 mps 704 mmHg 92%
    21:00 +22°C° 0.2 mm 0 mps 705 mmHg 93%
    22:00 +22°C° 0.2 mm 0 mps 705 mmHg 94%
    23:00 +22°C° 0.3 mm 0 mps 705 mmHg 95%

    Tomorrow, 23 September, Sunday

    Time Temperature Precipitation Wind Pressure Humidity
    00:00 +21°C° 0.3 mm 0 mps 705 mmHg 95%
    01:00 +21°C° 0.3 mm 0 mps 706 mmHg 95%
    02:00 +21°C° 0.2 mm 0 mps 705 mmHg 95%
    03:00 +21°C° 0.2 mm 0 mps 705 mmHg 95%
    04:00 +21°C° 0.2 mm 0 mps 705 mmHg 95%
    05:00 +21°C° 0 mm 0 mps 705 mmHg 94%
    06:00 +21°C° 0 mm 0 mps 705 mmHg 93%
    07:00 +22°C° 0 mm 0 mps 706 mmHg 92%
    08:00 +26°C° 0.4 mm 1 mps 706 mmHg 85%
    09:00 +27°C° 0.4 mm 1 mps 707 mmHg 78%
    10:00 +29°C° 0.4 mm 1 mps 707 mmHg 71%
    11:00 +29°C° 1 mm 1 mps 707 mmHg 73%
    12:00 +30°C° 1 mm 1 mps 706 mmHg 75%
    13:00 +30°C° 1 mm 1 mps 706 mmHg 78%
    14:00 +30°C° 1.5 mm 1 mps 705 mmHg 78%
    15:00 +29°C° 1.5 mm 1 mps 705 mmHg 79%
    16:00 +27°C° 1.5 mm 0 mps 704 mmHg 80%
    17:00 +26°C° 0.2 mm 0 mps 704 mmHg 84%
    18:00 +24°C° 0.2 mm 0 mps 704 mmHg 88%
    19:00 +23°C° 0.2 mm 0 mps 703 mmHg 92%
    20:00 +22°C° 2 mm 0 mps 704 mmHg 93%
    21:00 +22°C° 2 mm 0 mps 705 mmHg 94%
    22:00 +22°C° 2 mm 0 mps 705 mmHg 95%
    23:00 +21°C° 1.4 mm 0 mps 705 mmHg 95%

    Day after tomorrow, 24 September, Monday

    Time Temperature Precipitation Wind Pressure Humidity
    00:00 +21°C° 1.4 mm 0 mps 705 mmHg 95%
    01:00 +21°C° 1.4 mm 0 mps 705 mmHg 95%
    02:00 +21°C° 0.5 mm 0 mps 704 mmHg 95%
    03:00 +21°C° 0.5 mm 0 mps 704 mmHg 95%
    04:00 +20°C° 0.5 mm 0 mps 704 mmHg 95%
    05:00 +21°C° 0 mm 0 mps 704 mmHg 95%
    06:00 +21°C° 0 mm 0 mps 704 mmHg 94%
    07:00 +22°C° 0 mm 0 mps 705 mmHg 94%
    08:00 +24°C° 0.2 mm 0 mps 705 mmHg 84%
    09:00 +26°C° 0.2 mm 0 mps 706 mmHg 75%
    10:00 +29°C° 0.2 mm 0 mps 706 mmHg 65%
    11:00 +28°C° 1.2 mm 0 mps 706 mmHg 69%
    12:00 +28°C° 1.2 mm 0 mps 705 mmHg 74%
    13:00 +30°C° 1.2 mm 1 mps 704 mmHg 78%
    14:00 +29°C° 2.9 mm 1 mps 704 mmHg 81%
    15:00 +29°C° 2.9 mm 1 mps 703 mmHg 83%
    16:00 +28°C° 2.9 mm 1 mps 702 mmHg 86%
    17:00 +27°C° 0.9 mm 1 mps 702 mmHg 88%
    18:00 +26°C° 0.9 mm 1 mps 703 mmHg 91%
    19:00 +24°C° 0.9 mm 1 mps 703 mmHg 94%
    20:00 +24°C° 0.3 mm 1 mps 703 mmHg 95%
    21:00 +24°C° 0.3 mm 1 mps 704 mmHg 96%
    22:00 +23°C° 0.3 mm 1 mps 704 mmHg 96%
    23:00 +23°C° 0 mm 1 mps 704 mmHg 96%

    25 September, Tuesday

    Time Temperature Precipitation Wind Pressure Humidity
    00:00 +23°C° 0 mm 1 mps 704 mmHg 97%
    01:00 +23°C° 0 mm 1 mps 703 mmHg 97%
    02:00 +22°C° 0 mm 1 mps 703 mmHg 97%
    03:00 +22°C° 0 mm 1 mps 703 mmHg 97%
    04:00 +22°C° 0 mm 1 mps 702 mmHg 97%
    05:00 +20°C° 0 mm 0 mps 703 mmHg 97%
    06:00 +21°C° 0 mm 0 mps 703 mmHg 96%
    07:00 +21°C° 0 mm 0 mps 703 mmHg 96%
    08:00 +23°C° 0 mm 0 mps 704 mmHg 87%
    09:00 +26°C° 0 mm 0 mps 705 mmHg 78%
    10:00 +30°C° 0 mm 1 mps 706 mmHg 69%
    11:00 +30°C° 0.6 mm 1 mps 705 mmHg 71%
    12:00 +31°C° 0.6 mm 1 mps 704 mmHg 72%
    13:00 +31°C° 0.6 mm 1 mps 703 mmHg 74%
    14:00 +31°C° 0.8 mm 1 mps 703 mmHg 75%
    15:00 +30°C° 0.8 mm 1 mps 702 mmHg 76%
    16:00 +30°C° 0.8 mm 1 mps 701 mmHg 76%
    17:00 +28°C° 0.2 mm 1 mps 701 mmHg 82%
    18:00 +27°C° 0.2 mm 1 mps 701 mmHg 87%
    19:00 +25°C° 0.2 mm 1 mps 701 mmHg 92%
    20:00 +25°C° 0.3 mm 1 mps 701 mmHg 93%
    21:00 +25°C° 0.3 mm 1 mps 702 mmHg 94%
    22:00 +22°C° 0.3 mm 0 mps 703 mmHg 96%
    23:00 +22°C° 0.1 mm 0 mps 702 mmHg 96%

    26 September, Wednesday

    Time Temperature Precipitation Wind Pressure Humidity
    00:00 +22°C° 0.1 mm 0 mps 702 mmHg 96%
    01:00 +23°C° 0.1 mm 1 mps 702 mmHg 97%
    02:00 +21°C° 0.1 mm 0 mps 702 mmHg 97%
    03:00 +21°C° 0.1 mm 0 mps 701 mmHg 97%
    04:00 +21°C° 0.1 mm 0 mps 701 mmHg 97%
    05:00 +21°C° 0 mm 0 mps 702 mmHg 96%
    06:00 +22°C° 0 mm 0 mps 702 mmHg 95%
    07:00 +22°C° 0 mm 0 mps 703 mmHg 94%
    08:00 +24°C° 0.1 mm 0 mps 703 mmHg 86%
    09:00 +26°C° 0.1 mm 0 mps 704 mmHg 78%
    10:00 +30°C° 0.1 mm 1 mps 705 mmHg 70%
    11:00 +31°C° 0.5 mm 1 mps 704 mmHg 69%
    12:00 +31°C° 0.5 mm 1 mps 703 mmHg 67%
    13:00 +32°C° 0.5 mm 1 mps 703 mmHg 66%
    14:00 +31°C° 0.8 mm 1 mps 702 mmHg 68%
    15:00 +31°C° 0.8 mm 1 mps 701 mmHg 71%
    16:00 +31°C° 0.8 mm 1 mps 701 mmHg 74%
    17:00 +29°C° 0.5 mm 1 mps 701 mmHg 79%
    18:00 +27°C° 0.5 mm 1 mps 701 mmHg 84%
    19:00 +24°C° 0.5 mm 0 mps 701 mmHg 89%
    20:00 +23°C° 0.2 mm 0 mps 702 mmHg 91%
    21:00 +23°C° 0.2 mm 0 mps 702 mmHg 92%
    22:00 +22°C° 0.2 mm 0 mps 703 mmHg 94%
    23:00 +22°C° 0.1 mm 0 mps 702 mmHg 94%

    27 September, Thursday

    Time Temperature Precipitation Wind Pressure Humidity
    00:00 +22°C° 0.1 mm 0 mps 702 mmHg 95%
    01:00 +22°C° 0.1 mm 0 mps 702 mmHg 95%
    02:00 +22°C° 0 mm 0 mps 702 mmHg 96%
    03:00 +21°C° 0 mm 0 mps 702 mmHg 96%
    04:00 +21°C° 0 mm 0 mps 701 mmHg 96%
    05:00 +22°C° 0 mm 0 mps 702 mmHg 95%
    06:00 +22°C° 0 mm 0 mps 703 mmHg 94%
    07:00 +22°C° 0 mm 0 mps 703 mmHg 93%
    08:00 +24°C° 0.1 mm 0 mps 704 mmHg 86%
    09:00 +27°C° 0.1 mm 0 mps 704 mmHg 78%
    10:00 +31°C° 0.1 mm 1 mps 705 mmHg 70%
    11:00 +31°C° 0.4 mm 1 mps 704 mmHg 69%
    12:00 +32°C° 0.4 mm 1 mps 703 mmHg 68%
    13:00 +32°C° 0.4 mm 1 mps 703 mmHg 67%
    14:00 +32°C° 0.6 mm 1 mps 702 mmHg 68%
    15:00 +31°C° 0.6 mm 1 mps 702 mmHg 69%
    16:00 +31°C° 0.6 mm 1 mps 701 mmHg 70%
    17:00 +29°C° 0.2 mm 1 mps 701 mmHg 76%
    18:00 +28°C° 0.2 mm 1 mps 701 mmHg 83%
    19:00 +24°C° 0.2 mm 0 mps 701 mmHg 89%
    20:00 +24°C° 0.4 mm 0 mps 702 mmHg 91%
    21:00 +23°C° 0.4 mm 0 mps 702 mmHg 92%
    22:00 +23°C° 0.4 mm 0 mps 703 mmHg 94%
    23:00 +25°C° 0.5 mm 1 mps 702 mmHg 94%
    Show more